THORAD DELTA 1 DEB, 8596

Orbit data source: Space-Track

THORAD DELTA 1 DEB, 8596 is space debris in SSO originally from a launch on Fri, 15 Nov 1974 UTC launched from the Air Force Western Test Range (AFWTR). Debris objects in space refer to the collection of defunct objects orbiting the Earth. Examples of debris include non-operational satellites, rocket bodies, and fragments generated from explosions, collisions, or faulty payload assembly.

Loading next visibility...
Identifier
8596, 1974-089DK
Orbit
SSO
Country
Flag of USUS
Related business
Manufacturer
Unknown
Mission
Spacecraft
Bus & Motor
Unknown
Mass
Unknown
Launch date (UTC)
1974-11-15 (52 years ago)
Launch vehicle
Unknown
Launch site
Air Force Western Test Range (AFWTR)
Object type
Payload
Rocket body
Debris
Shape & HBR
Unknown shape, 0.1 m
Radar Cross Section
Medium (>0.1 m² and <1 m²)

Expand to show TLE details & history
Last TLE update: 4 hours ago

TLE from 4 hours ago
0 THORAD DELTA 1 DEB
1 08596U 74089DK  26208.62676435  .00000009  00000-0  28591-3 0  9990
2 08596 101.7648  81.3151 0087409 229.3044 155.3151 12.68841032391951
Epoch: 2026-07-27T15:02Z
TLE epoch observation values (Epoch: 2026-07-27T15:02:32.439Z)
Latitude
24.49894°
Longitude
-95.04698°
Altitude
1,451.129 km
Speed
7.11 km/s
True Right ascension
05h 03m 34s
True Declination
24° 22' 51"
Sunlit
Object was in daylight at epoch
Visualization orbit readout
Latitude
Unknown
Longitude
Unknown
Altitude
Unknown
Speed
Unknown
Apparent Right ascension
Unknown
Apparent Declination
Unknown
Sunlit
N/A
Visualization observer readout
Local Sidereal Time
08:32:35
Azimuth
Unknown
Elevation
Unknown
Doppler factor
Unknown
Orbital elements
Apogee altitude
1,452.037 km
Perigee altitude
1,316.338 km
Semi-major axis
7,762.324 km
Eccentricity
0.00874
Inclination
101.7648°
RAAN
81.3151°
Arg. of periapsis
229.3044°
True anomaly
155.72929°
Mean anomaly
155.3151°
Eccentric anomaly
155.52261°
Mean motion
3.17362 °/min
Orbital period
113.43 mins
BSTAR
0.00028591
Loading maneuver chart data...
Computing Atmospheric mass density...

Documentation

Showing up to 5 results
|